Meadow Lake, CO

8:29 PM MDT on September 20, 2019 (GMT -0600)
Meadow Lake

Weather History for KFLY - August, 2019

Change the Weather History Date:

Monday, August 19, 2019

  Actual Average (WUND) Record (WUND)
Temperature  
Mean Temperature 72 °F -  
Max Temperature 91 °F - - (-1)
Min Temperature 54 °F - - (-1)
Cooling Degree Days 8    
Growing Degree Days 22 (Base 50)    
Moisture  
Dew Point 36 °F    
Average Humidity 33    
Maximum Humidity 78    
Minimum Humidity 10    
Precipitation  
Precipitation 0.00 in - - ()
Sea Level Pressure  
Sea Level Pressure 30.24 in    
Wind  
Wind Speed 7 mph (North)    
Max Wind Speed 12 mph    
Max Gust Speed 24 mph    
Visibility 10 miles    
Events      
Averages and records for this station are not official NWS values.
T = Trace of Precipitation, MM = Missing Value Source: NWS Daily Summary

Daily Weather History Graph

Daily Weather History Graph

Search for Another Location

Airport or City:

Astronomy

Aug. 19, 2019 Rise Set
Actual Time 6:15 AM MDT 7:47 PM MDT
Civil Twilight 5:47 AM MDT 8:16 PM MDT
Nautical Twilight 5:13 AM MDT 8:49 PM MDT
Astronomical Twilight 4:37 AM MDT 9:25 PM MDT
Moon 10:12 PM MDT (8/19) 9:57 AM MDT (8/19)
Length of Visible Light 14h 28m
Length of Day
13h 32m
Waning Gibbous, 85% of the Moon is Illuminated
Aug 19
Waning Gibbous
Aug 23
Last Quarter
Aug 30
New
Sep 5
First Quarter
Sep 13
Full

Hourly Weather History & Observations

Time (MDT) Temp. Dew Point Humidity Pressure Visibility Wind Dir Wind Speed Gust Speed Precip Events Conditions
12:15 AM 63.1 °F 47.5 °F 57% 30.22 in 10.0 mi NNE 6.9 mph - N/A   Clear
12:35 AM 62.6 °F 48.6 °F 60% 30.22 in 10.0 mi East 3.5 mph - N/A   Clear
12:55 AM 62.4 °F 50.0 °F 64% 30.22 in 10.0 mi East 3.5 mph - N/A   Clear
1:35 AM 60.4 °F 50.0 °F 68% 30.21 in 10.0 mi NNE 4.6 mph - N/A   Clear
1:55 AM 59.5 °F 50.2 °F 71% 30.21 in 10.0 mi North 10.4 mph - N/A   Clear
2:15 AM 59.4 °F 50.9 °F 74% 30.22 in 10.0 mi NNE 8.1 mph - N/A   Clear
2:35 AM 59.9 °F 50.7 °F 72% 30.22 in 10.0 mi North 9.2 mph - N/A   Clear
2:55 AM 60.1 °F 51.1 °F 72% 30.21 in 10.0 mi North 8.1 mph - N/A   Clear
3:15 AM 58.3 °F 50.2 °F 74% 30.21 in 10.0 mi North 8.1 mph - N/A   Clear
3:35 AM 57.0 °F 49.1 °F 75% 30.21 in 10.0 mi West 9.2 mph - N/A   Clear
3:55 AM 57.2 °F 49.1 °F 74% 30.21 in 10.0 mi North 8.1 mph - N/A   Clear
4:15 AM 56.7 °F 49.1 °F 76% 30.21 in 10.0 mi NNE 9.2 mph - N/A   Clear
4:35 AM 55.2 °F 47.8 °F 76% 30.22 in 10.0 mi West 9.2 mph - N/A   Clear
4:55 AM 56.5 °F 48.0 °F 73% 30.22 in 10.0 mi WNW 6.9 mph - N/A   Clear
5:15 AM 54.5 °F 47.8 °F 78% 30.22 in 10.0 mi NW 5.8 mph - N/A   Clear
5:35 AM 56.3 °F 47.3 °F 72% 30.22 in 10.0 mi WNW 8.1 mph - N/A   Clear
5:55 AM 57.2 °F 47.5 °F 70% 30.22 in 10.0 mi WNW 10.4 mph - N/A   Clear
6:15 AM - - N/A% - 10.0 mi North - - N/A   Clear
6:35 AM - - N/A% 30.23 in - WNW 8.1 mph - N/A   Unknown
6:55 AM - - N/A% 30.23 in - North - - N/A   Unknown
7:15 AM 66.6 °F 35.8 °F 32% 30.23 in 10.0 mi NNW 6.9 mph - N/A   Unknown
7:35 AM 72.3 °F 33.8 °F 24% 30.24 in 10.0 mi NNW 4.6 mph - N/A   Clear
7:55 AM 75.9 °F 31.8 °F 20% 30.24 in 10.0 mi NNW 5.8 mph - N/A   Clear
8:15 AM 78.3 °F 28.2 °F 16% 30.25 in 10.0 mi NNW 8.1 mph - N/A   Clear
8:35 AM 80.8 °F 28.2 °F 15% 30.25 in 10.0 mi North 10.4 mph 16.1 mph N/A   Clear
8:55 AM 81.5 °F 28.9 °F 15% 30.25 in 10.0 mi NNW 11.5 mph 23.0 mph N/A   Clear
9:15 AM 81.0 °F 31.3 °F 16% 30.26 in 10.0 mi NNW 6.9 mph 21.9 mph N/A   Clear
9:35 AM 80.6 °F 28.0 °F 15% 30.26 in 10.0 mi NNW 10.4 mph 24.2 mph N/A   Clear
9:55 AM 82.4 °F 28.9 °F 14% 30.27 in 10.0 mi NNW 10.4 mph 21.9 mph N/A   Clear
10:15 AM 82.8 °F 28.0 °F 14% 30.27 in 10.0 mi NNW 9.2 mph 21.9 mph N/A   Clear
10:35 AM 85.1 °F 26.8 °F 12% 30.28 in 10.0 mi North 10.4 mph 21.9 mph N/A   Clear
10:55 AM 86.9 °F 27.9 °F 12% 30.28 in 10.0 mi North 4.6 mph - N/A   Clear
11:15 AM 87.8 °F 28.2 °F 12% 30.28 in 10.0 mi NE 5.8 mph 20.7 mph N/A   Clear
11:35 AM 87.1 °F 27.5 °F 12% 30.28 in 10.0 mi NNE 6.9 mph - N/A   Clear
11:55 AM 86.7 °F 26.2 °F 11% 30.28 in 10.0 mi Calm Calm - N/A   Clear
12:15 PM 87.4 °F 27.0 °F 11% 30.27 in 10.0 mi South 4.6 mph - N/A   Clear
12:35 PM 87.3 °F 26.4 °F 11% 30.27 in 10.0 mi Calm Calm - N/A   Clear
12:55 PM 88.2 °F 26.2 °F 11% 30.27 in 10.0 mi West 4.6 mph - N/A   Clear
1:15 PM 90.3 °F 28.0 °F 11% 30.26 in 10.0 mi Calm Calm - N/A   Clear
1:35 PM 89.6 °F 28.6 °F 11% 30.26 in 10.0 mi East 9.2 mph - N/A   Clear
1:55 PM 86.2 °F 28.2 °F 12% 30.26 in 10.0 mi ESE 4.6 mph - N/A   Clear
2:15 PM 91.6 °F 28.9 °F 11% 30.25 in - North - - N/A   Unknown
2:35 PM - - N/A% - - North - - N/A   Unknown
2:55 PM - - N/A% - - North - - N/A   Unknown
3:15 PM 90.1 °F 28.4 °F 11% 30.24 in 10.0 mi SSW 4.6 mph - N/A   Scattered Clouds
3:35 PM 91.2 °F 27.7 °F 10% 30.23 in 10.0 mi SSE 6.9 mph 17.3 mph N/A   Scattered Clouds
3:55 PM 86.2 °F 26.8 °F 12% 30.23 in 10.0 mi SW 3.5 mph - N/A   Clear
4:15 PM 88.3 °F 27.0 °F 11% 30.23 in 10.0 mi ESE 3.5 mph - N/A   Clear
4:35 PM 90.1 °F 28.4 °F 11% 30.23 in 10.0 mi SE 10.4 mph - N/A   Clear
4:55 PM 89.2 °F 27.5 °F 11% 30.22 in 10.0 mi South 6.9 mph - N/A   Clear
5:15 PM 89.8 °F 27.7 °F 11% 30.22 in 10.0 mi ESE 10.4 mph - N/A   Clear
5:35 PM 89.6 °F 27.0 °F 10% 30.21 in 10.0 mi East 3.5 mph - N/A   Clear
5:55 PM 89.2 °F 25.5 °F 10% 30.21 in 10.0 mi SW 4.6 mph - N/A   Clear
6:15 PM 87.8 °F 26.1 °F 11% 30.22 in 10.0 mi SE 9.2 mph - N/A   Clear
6:35 PM 86.9 °F 25.5 °F 11% 30.21 in 10.0 mi SE 6.9 mph - N/A   Clear
7:15 PM 79.9 °F 33.1 °F 18% 30.21 in 10.0 mi East 6.9 mph - N/A   Clear
7:35 PM 76.5 °F 34.0 °F 21% 30.21 in 10.0 mi ESE 8.1 mph - N/A   Clear
7:55 PM 75.4 °F 33.1 °F 21% 30.21 in 10.0 mi SE 4.6 mph - N/A   Clear
8:15 PM 74.1 °F 33.3 °F 22% 30.21 in 10.0 mi SE 3.5 mph - N/A   Clear
9:15 PM 69.8 °F 35.8 °F 29% 30.23 in 10.0 mi North 5.8 mph - N/A   Clear
9:35 PM 70.0 °F 35.4 °F 28% 30.24 in 10.0 mi NNE 3.5 mph - N/A   Clear
9:55 PM 69.3 °F 35.4 °F 29% 30.25 in 10.0 mi East 5.8 mph - N/A   Clear
10:15 PM 67.8 °F 36.9 °F 32% 30.24 in 10.0 mi NE 3.5 mph - N/A   Clear
10:35 PM 66.7 °F 37.9 °F 35% 30.25 in 10.0 mi North 5.8 mph - N/A   Clear
10:55 PM 66.6 °F 38.8 °F 36% 30.26 in 10.0 mi NNW 5.8 mph - N/A   Clear
11:15 PM 66.0 °F 41.0 °F 40% 30.25 in 10.0 mi North 5.8 mph - N/A   Clear
11:35 PM 64.6 °F 42.8 °F 45% 30.25 in 10.0 mi NNW 4.6 mph - N/A   Clear
11:55 PM 62.8 °F 43.7 °F 50% 30.25 in 10.0 mi NW 3.5 mph - N/A   Clear